Regional Weather Roundup
Issued by NWS Northern Indiana

Home | Current Version | Previous Version | Text Only | Print | Product List | Glossary Off
Versions: 1 2 3 4 5 6 7 8 9 10 11 12 13 14 15 16 17 18 19 20 21 22 23 24 25 26 27 28 29 30 31 32 33 34 35 36 37 38 39 40 41 42 43 44 45 46 47 48 49 50

000
ASUS43 KIWX 190210
RWRIWX

KIWX WEATHER ROUNDUP
NATIONAL WEATHER SERVICE NORTHERN INDIANA
1000 PM EDT FRI APR 18 2014

NOTE: "FAIR" INDICATES FEW OR NO CLOUDS BELOW 12,000 FEET WITH NO
SIGNIFICANT WEATHER AND/OR OBSTRUCTIONS TO VISIBILITY.

* THESE STATIONS ARE NOT UNDER NWS QUALITY CONTROL. THEY ALSO MAY NOT
  REPORT WEATHER SUCH AS PRECIPITATION OR FOG.

INZ001>027-190300-
NORTHERN INDIANA

CITY           SKY/WX    TMP DP  RH WIND       PRES   REMARKS
GARY*          CLEAR     37  30  75 NE8       30.37R
VALPARAISO     CLEAR     37  28  70 N9        30.35R
MICHIGAN CITY* CLEAR     36  28  75 NE6       30.36R
LAPORTE*       CLEAR     37  27  65 N7        30.35R
SOUTH BEND     CLEAR     39  25  57 N9        30.34R
GOSHEN         CLEAR     45  33  63 N9        30.32R
MONTICELLO*    CLEAR     47  36  64 N9G16     30.30R
LOGANSPORT*    CLEAR     46  34  61 N13       30.31R
ROCHESTER*     CLEAR     46  36  66 N9        30.32R
WARSAW*        CLEAR     45  36  70 N8        30.31R
ANGOLA*        CLEAR     48  36  61 NW7       30.30R
FORT WAYNE     CLEAR     53  35  50 N12       30.28R
HUNTINGTON*    FAIR      51  36  55 N8        30.28R
PERU/GRISSOM   CLEAR     51  39  63 N10       30.28R
MARION*        CLEAR     54  33  44 N9        30.28R

$$
INZ028>050-190300-
CENTRAL INDIANA

CITY           SKY/WX    TMP DP  RH WIND       PRES   REMARKS
LAFAYETTE      CLEAR     50  35  56 N13       30.29R
KOKOMO*        CLEAR     52  36  54 N12       30.28
MUNCIE*        CLEAR     52  40  63 N7        30.26R
INDIANAPOLIS   CLEAR     58  37  45 N7        30.24R

$$
MIZ043>046-050>051-056>058-064>065-071>073-077>080-190300-
SOUTHWEST LOWER MICHIGAN

CITY           SKY/WX    TMP DP  RH WIND       PRES   REMARKS
BATTLE CREEK   CLEAR     45  29  53 NW8       30.32R
BENTON HARBOR  CLEAR     35  26  69 N8G20     30.33F WCI  29
COLDWATER*     CLEAR     46  30  54 NW7       30.31R
HILLSDALE*     CLEAR     51  32  49 NW10      30.29R
HOLLAND        CLEAR     41  29  62 N6        30.34S
GRAND RAPIDS   CLEAR     47  26  44 N9        30.33R
KALAMAZOO      CLEAR     43  30  60 NW9       30.32R
STURGIS*       CLEAR     45  34  65 NW5       30.31R
THREE RIVERS*  FAIR      44  32  62 NW6       30.32R

$$
OHZ001>008-015>018-024>025-190300-
NORTHWEST OHIO

CITY           SKY/WX    TMP DP  RH WIND       PRES   REMARKS
WAUSEON*       FAIR      50  43  76 NE8       30.28R
DEFIANCE       CLEAR     53  34  48 N7        30.27R
FINDLAY        CLEAR     56  41  57 NE9       30.24R
TOLEDO EXPRESS CLEAR     49  42  77 E6        30.27R
TOLEDO METCALF CLEAR     49  42  77 E5        30.28R
LIMA           CLEAR     55  39  54 NW5       30.24R

$$
&&



USA.gov is the U.S. government's official web portal to all federal, state and local government web resources and services.